RJFG

Details ICAO RJFG (TNE)
Name NEW TANEGASHIMA
Region Japan
Timezone Asia/Tokyo (UTC+9.0)
Plans Departing 8
Arriving 6
Stats Elevation 768 ft / 234 m (AMSL)
Location 30.605090° 130.991605°
Runways 1
Magnetic Variation 6.584° W
Sunrise 2018-05-23 20:18:24 UTC / 2018-05-24 05:18:24 Local
Sunset 2018-05-24 10:10:09 UTC / 2018-05-24 19:10:09 Local
Advertisement - Login to hide

Runways

ID Width Length Bearing (true) Bearing (mag) Surface Threshold Offset Overrun Length
13 147 ft / 45 m 6,563 ft / 2,000 m 123.08° 129.66° Asphalt 0 ft / 0 m 195 ft / 59 m
31 147 ft / 45 m 6,563 ft / 2,000 m 303.08° 309.66° Asphalt 0 ft / 0 m 195 ft / 59 m

Approach Navaids

Runway Type Ident Frequency Range Bearing (true) Bearing (mag) Slope Elevation
31 Localiser ITN 108.95 MHz 18 nm / 33 km 303.08° 309.66° - 768 ft / 234 m (AMSL)
31 Glidescope ITN 108.95 MHz 10 nm / 19 km 303.08° 309.66° 3.00° 768 ft / 234 m (AMSL)
31 DME ITN 108.95 MHz 18 nm / 33 km - - - 776 ft / 237 m (AMSL)

Map

Weather


0- 5 10 15 20 25 30 35+ Temperature / ° C

Clouds and Precipitation
Forecast for 2018-05-24 00:00 UTC. Updated 5 hours ago

Ground ~20,000 ft ~40,000 ft Winds

METAR

RJFG 240400Z 06005KT 350V130 9999 FEW020 25/12 Q1010

TAF

Not found

Frequencies

Tower 118.75 MHz TANEGASHIMA
Approach 133.85 MHz FUKUOKA
Tower 126.20 MHz TANEGASHIMA
Approach 132.60 MHz FUKUOKA
Warning: Do not use this data for real-world aviation or navigation. No guarantee of current accuracy is given.